User: anonymous   Login
Location: Unspecified
(0.0000°N, 0.0000°E)
Time: 07:57:58
(UTC+02:00)
Language:

CZ-4 R/B - Orbit

View from above orbital plane
View from above orbital plane
View from above satellite
View from above satellite

Ground track
Ground track

The orbit data is extracted from the following two-line orbital elements,

1 28059U 03049C   16148.19670859  .00000001  00000-0  12282-4 0  9995
2 28059  98.6149  19.2311 0049977 345.1571 124.2062 14.52443544667644
Epoch (UTC): 27 May 2016 04:43:15
Eccentricity: 0.0049977
inclination: 98.6149°
perigee height: 682 km
apogee height: 753 km
right ascension of ascending node: 19.2311°
argument of perigee: 345.1571°
revolutions per day: 14.52443544
mean anomaly at epoch: 124.2062°
orbit number at epoch: 66764

The dashed part of the orbit path shows where the satellite is in the earth's shadow,  

DLR